weather.gov     
National Weather Service

Regional Weather Roundup
NWS Homepage
This page is being discontinued on March 12, 2014.
The same data is available at this site. Please update your bookmarks.
Thank you, and we apologize for the inconvenience.
Please send an email to SR-SRH.Webmaster@noaa.gov with any concerns.


Current Version
Previous Version:    01  02  03  04  05  06  07  08  09  10  11  12  13  14  15  16  17  18  19  20  21  22  23  24  25  26  27  
[Printable]
171
ASUS45 KBOI 020210
RWRID
WEATHER ROUNDUP FOR IDAHO
NATIONAL WEATHER SERVICE BOISE ID
800 PM MDT WED OCT 01 2014

NOTE: "FAIR" INDICATES FEW OR NO CLOUDS BELOW 12000 FEET
WITH NO SIGNIFICANT WEATHER AND/OR OBSTRUCTIONS TO VISIBILITY

IDZ012-014-020300-
SOUTHWEST IDAHO


CITY           SKY/WX    TMP DP  RH WIND       PRES   REMARKS
BOISE          CLEAR     58  35  42 CALM      30.14S
CALDWELL       CLEAR     55  34  44 E6        30.15S
MOUNTAIN HOME  CLEAR     57  30  36 NW10      30.14S
$$

IDZ016-017-020300-
SOUTHCENTRAL IDAHO


CITY           SKY/WX    TMP DP  RH WIND       PRES   REMARKS
BURLEY         CLEAR     47  33  58 SW9       30.15R
JEROME         CLEAR     49  30  48 SW9       30.15R
TWIN FALLS     CLEAR     48  31  51 SW9       30.17R
$$

IDZ019>023-020300-
SOUTHEAST IDAHO


CITY           SKY/WX    TMP DP  RH WIND       PRES   REMARKS
IDAHO FALLS    PTCLDY    50  36  58 S10       30.12R
POCATELLO      CLEAR     48  33  56 SW12      30.14R
REXBURG        PTCLDY    48  32  53 SW6       30.10R
$$

IDZ006-010-011-018-031-032-020300-
CENTRAL IDAHO MOUNTAINS


CITY           SKY/WX    TMP DP  RH WIND       PRES   REMARKS
MCCALL         CLEAR     46  33  60 CALM      30.14S
HAILEY         PTCLDY    48  36  61 SE9       30.13R
STANLEY          N/A     37  27  67 CALM      30.18R
SALMON         CLEAR     45  32  61 CALM      30.10R
CHALLIS        CLEAR     46  31  55 E5        30.10R
$$

IDZ002-004-006-007-026-020300-
NORTHERN IDAHO


CITY           SKY/WX    TMP DP  RH WIND       PRES   REMARKS
LEWISTON       CLEAR     60  38  43 N3        30.06S
LOWELL           N/A     50  47  89 CALM      30.12R
COEUR D`ALENE  MOCLDY    54  36  50 S12       30.03F
MULLAN PASS    MOCLDY    36  33  89 VRB7G18   30.08R WCI  30
$$




U.S. Dept. of Commerce
NOAA National Weather Service
1325 East West Highway
Silver Spring, MD 20910
E-mail: w-nws.webmaster@noaa.gov
Page last modified: May 16, 2007
NATIONAL WEATHER SERVICE: for Safety, for Work, for Fun - FOR LIFE